カタログに戻る

THOR ABLESTAR DEB

運用中LEO
NORAD 354·DEBRIS·🇺🇸 United States

打ち上げ Jun 29, 1961 から Cape Canaveral Space Force Station

Loading…

次のパス (今後24時間)

TLE

最新Source: Space-Track

元期: Sep 7, 2026, 10:57 UTC

1 00354U 61015DU  26250.45633484  .00000210  00000-0  40132-3 0  9993
2 00354  67.0651 274.8574 0172227 252.4138 175.7282 13.49479511488974

AllMySatでTHOR ABLESTAR DEBをリアルタイム追跡

Download on the App Store